Flag for Germany Weather past 2 weeks in Rotenburg (Wümme), Lower Saxony, Germany

Now
48 °F

Sprinkles. Overcast.


Feels Like: 42 °F
Forecast: 37 / 43 °F
Wind: 16 mph from West

Location: Bremen

Current Time: Mar 31, 2015 at 11:48:06 AM

Latest Report: Mar 31, 2015 at 10:00 AM


Visibility: 19 mi

Pressure: 29.06 "Hg

Humidity: 79%

Dew point: 41 °F

Location of Rotenburg (Wümme)Location

Historic Weather in Rotenburg (Wümme) — Graph

°F

Rotenburg (Wümme) temperature yesterday

Maximum temperature yesterday: 48 °F (at 2:00 PM)
Minimum temperature yesterday: 39 °F (at 8:00 AM)
Average temperature yesterday: 43 °F

Past Weeks' High & Low Weather Summary

 TemperatureHumidityPressure
High60 °F (Mar 18, 4:00 PM)100% (Mar 19, 6:00 AM)30.43 "Hg (Mar 19, 6:00 AM)
Low28 °F (Mar 23, 7:00 AM)31% (Mar 19, 4:00 PM)29.00 "Hg (Mar 29, 9:00 PM)
Average44 °F77%29.96 "Hg
* Reported Mar 16 9:00 AM — Mar 31 10:00 AM, Rotenburg (Wümme), Weather by CustomWeather, © 2015

Note: Actual official high and low records may vary slightly from our data, if they occured in-between our weather recording intervals... More about our weather records

Advertising

Rotenburg (Wümme) weather history for previous 24 hours

 ConditionsComfort  
Time TempWeatherWind HumidityBarometerVisibility
10:00 AM
Tue, Mar 31
48 °FSprinkles. Overcast.16 mph79%29.06 "Hg19 mi
9:00 AM48 °FOvercast.13 mph82%29.03 "Hg19 mi
8:00 AM46 °FLight rain. Partly sunny.13 mph92%29.03 "Hg9 mi
7:00 AM41 °FRain. Low clouds.7 mph97%29.00 "Hg2 mi
6:00 AM39 °FLow clouds.8 mph93%29.09 "Hg12 mi
4:00 AM36 °FRain. Low clouds.N/A94%29.29 "Hg4 mi
3:00 AM38 °FLight rain. Overcast.8 mph90%29.41 "Hg7 mi
2:00 AM42 °FLight rain. Overcast.6 mph62%29.50 "Hg19 mi
1:00 AM41 °FOvercast.7 mph68%29.57 "Hg16 mi
12:00 AM41 °FOvercast.8 mph74%29.63 "Hg16 mi
10:00 PM
Mon, Mar 30
40 °FOvercast.6 mph74%29.70 "Hg19 mi
9:00 PM41 °FPassing clouds.9 mph67%29.71 "Hg19 mi
8:00 PM42 °FPassing clouds.9 mph64%29.70 "Hg19 mi
7:00 PM45 °FScattered clouds.10 mph58%29.67 "Hg19 mi
6:00 PM46 °FScattered clouds.15 mph62%29.65 "Hg25 mi
4:00 PM46 °FPartly sunny.13 mph66%29.57 "Hg25 mi
3:00 PM43 °FPartly sunny.12 mph74%29.54 "Hg19 mi
2:00 PM48 °FScattered clouds.16 mph62%29.50 "Hg25 mi
1:00 PM44 °FScattered clouds.14 mph73%29.44 "Hg25 mi
12:00 PM44 °FPartly sunny.16 mph77%29.41 "Hg19 mi
Weather by CustomWeather, © 2015

See weather overviewHow to use our weather pages